Find Starlink 33611

NORAD ID: 63279 Int'l Des: 2025-053 Owner: SPXS Country: US Constellation: starlink operational
LEOCIRCULAR

Live Position

Loading 3D Globe...

About Starlink 33611

Description loading...

Upcoming Passes

Passes for default location (London). Set your location on the main map for personalized predictions.

Altitude History

Loading altitude history...

Two-Line Element Set

1 63279U 25053Q 26107.12461566 .00007394 00000-0 27788-3 0 9997
2 63279 43.0011 21.0752 0001199 270.4066 89.6648 15.27588384 62224
Epoch: Apr 17, 2026 • Age: 13 hours

Current Status

Altitude 483.0 km
Velocity 7.63 km/s
Sub-Earth Point -1.38°S, 108.53°E
Launch Date Mar 15, 2025
Age 1 years
Type internet

Technical Details

Classification Payload
Mass 575.00 kg
Dry Mass 530.00 kg
Total Mass 575.00 kg
Length 0.30 m
Diameter 4.10 m
Span 29.00 m
Shape Box + pan
Manufacturer SPXS
Bus Type Starlink V2MO
Phase Status In Orbit
Owner/State SPXS/US

Most Searched